Home > Weather > Sonthofen > Past weeks

Flag for Germany Past Weather in Sonthofen, Bavaria, Germany — Yesterday and Last 2 Weeks

Now
72 °F

Mild.


Feels Like: 72 °F
Forecast: 59 / 83 °F
Wind: 1 mph from Southeast

Location: Bregenz

Current Time: Aug 27, 2016 at 10:51:16 PM

Latest Report: Aug 27, 2016 at 10:00 PM


Visibility: N/A

Pressure: 30.01 "Hg (27.52 "Hg at 748m altitude)

Humidity: 80%

Dew Point: 65 °F

Location of SonthofenLocation

Past Weather in Sonthofen — Graph

°F

Sonthofen Temperature Yesterday

Maximum temperature yesterday: 89 °F (at 6:00 PM)
Minimum temperature yesterday: 64 °F (at 7:00 AM)
Average temperature yesterday: 74 °F

High & Low Weather Summary for the Past Weeks

 TemperatureHumidityPressure
High89 °F (Aug 26, 6:00 PM)96% (Aug 25, 7:00 AM)30.40 "Hg (Aug 25, 7:00 AM)
Low53 °F (Aug 13, 7:00 AM)38% (Aug 13, 5:00 PM)29.79 "Hg (Aug 17, 7:00 PM)
Average68 °F74%30.07 "Hg
* Reported Aug 12 9:00 PM — Aug 27 9:00 PM, Sonthofen, Weather by CustomWeather, © 2016

Note: Actual official high and low records may vary slightly from our data, if they occured in-between our weather recording intervals... More about our weather records

Advertising

Sonthofen Weather History for the Previous 24 Hours

Scroll right to see more
 ConditionsComfort  
Time TempWeatherWind HumidityBarometerVisibility
9:00 PM
Sat, Aug 27
74 °FMild.1 mph80%29.99 "HgN/A
8:00 PM77 °FMild.1 mph73%29.98 "HgN/A
7:00 PM84 °FWarm.1 mph58%29.95 "HgN/A
6:00 PM87 °FWarm.1 mph47%29.96 "HgN/A
5:00 PM85 °FWarm.2 mph49%29.97 "HgN/A
4:00 PM83 °FWarm.2 mph49%29.99 "HgN/A
3:00 PM82 °FWarm.2 mph52%30.01 "HgN/A
2:00 PM79 °FPassing clouds.2 mph54%30.03 "Hg17 mi
1:00 PM78 °FWarm.2 mph57%30.03 "HgN/A
12:00 PM76 °FMild.2 mph64%30.06 "HgN/A
11:00 AM76 °FSunny.2 mph64%30.07 "Hg19 mi
10:00 AM75 °FMild.No wind61%30.07 "HgN/A
9:00 AM69 °FMild.1 mph76%30.08 "HgN/A
8:00 AM62 °FSunny.1 mph89%30.09 "Hg19 mi
7:00 AM62 °FSunny.1 mph90%30.08 "Hg19 mi
5:00 AM64 °FMild.1 mph89%30.08 "HgN/A
4:00 AM64 °FMild.1 mph85%30.09 "HgN/A
3:00 AM66 °FMild.1 mph82%30.07 "HgN/A
2:00 AM66 °FMild.1 mph85%30.08 "HgN/A
1:00 AM67 °FMild.1 mph84%30.07 "HgN/A
10:00 PM
Fri, Aug 26
71 °FMild.No wind74%30.04 "HgN/A
Weather by CustomWeather, © 2016

See weather overviewHow to use our weather pages